Weather History for Jerez de la Frontera, Spain

Change the Weather History Date:

Saturday, January 11, 2014

  Actual Average Record
Temperature  
Mean Temperature 60 °F -  
Max Temperature 69 °F 60 °F 69 °F (2014)
Min Temperature 50 °F 40 °F 26 °F (2009)
Degree Days  
Heating Degree Days 6    
Growing Degree Days 10 (Base 50)    
Moisture  
Dew Point 54 °F    
Average Humidity 88    
Maximum Humidity 100    
Minimum Humidity 56    
Precipitation  
Precipitation 0.02 in 0.12 in - ()
Sea Level Pressure  
Sea Level Pressure 30.07 in    
Wind  
Wind Speed 2 mph ()    
Max Wind Speed 12 mph    
Max Gust Speed -    
Visibility 6.9 miles    
Events Fog , Rain    
Averages and records for this station are not official NWS values.
T = Trace of Precipitation, MM = Missing Value Source: Averaged Metar Reports

Daily Weather History Graph

Daily Weather History Graph

Search for Another Location

Airport:

Trip Planner

Search our weather history database for the weather conditions in past years. The results will help you decide how hot, cold, wet, or windy it might be!

Date:

Astronomy

Jan. 11, 2014 Rise Set
Actual Time 8:36 AM CET 6:27 PM CET
Civil Twilight 8:08 AM CET 6:56 PM CET
Nautical Twilight 7:36 AM CET 7:28 PM CET
Astronomical Twilight 7:05 AM CET 7:59 PM CET
Moon 3:00 PM CET (1/11) 4:30 AM CET (1/11)
Length of Visible Light 10h 47m
Length of Day
9h 50m
Waxing Gibbous, 81% of the Moon is Illuminated
Jan 11
Waxing Gibbous
Jan 16
Full
Jan 24
Last Quarter
Jan 30
New
Feb 6
First Quarter

Hourly Weather History & Observations

Time (CET) Temp. Dew Point Humidity Pressure Visibility Wind Dir Wind Speed Gust Speed Precip Events Conditions
12:00 AM 51 °F 51 °F 99% 29.98 in - Calm Calm - -  
1:00 AM 51 °F 51 °F 99% 29.98 in - NE 2.3 mph - -  
2:00 AM 51 °F 51 °F 99% 29.99 in - Calm Calm - -  
3:00 AM 51 °F 51 °F 100% 29.99 in - ENE 4.6 mph - -   Unknown Precipitation
4:00 AM 52 °F 52 °F 100% 30.00 in 11 mi ENE 1.2 mph - - Rain Light Rain
4:30 AM 53.6 °F 53.6 °F 100% 29.98 in 6.2 mi Variable 2.3 mph - N/A   Partly Cloudy
5:00 AM 54 °F 53 °F 95% 30.00 in - ENE 2.3 mph - -   Unknown Precipitation
5:00 AM 55.4 °F 53.6 °F 94% 29.98 in 6.2 mi Variable 1.2 mph - N/A   Partly Cloudy
5:30 AM 53.6 °F 51.8 °F 94% 29.98 in 6.2 mi Variable 2.3 mph - N/A   Partly Cloudy
6:00 AM 53 °F 53 °F 98% 30.00 in - Calm Calm - -   Unknown Precipitation
6:00 AM 53.6 °F 51.8 °F 94% 29.98 in - Calm Calm - N/A   Clear
6:30 AM 53.6 °F 51.8 °F 94% 29.98 in - Calm Calm - N/A   Clear
7:00 AM 53 °F 53 °F 98% 30.01 in 11 mi North 3.5 mph - - Rain Light Rain
7:00 AM 51.8 °F 51.8 °F 100% 29.98 in 6.2 mi North 4.6 mph - N/A Rain Light Rain
7:30 AM 51.8 °F 51.8 °F 100% 30.01 in 6.2 mi Variable 2.3 mph - N/A Rain Light Rain
8:00 AM 52 °F 52 °F 99% 30.03 in - NNW 4.6 mph - -  
8:00 AM 51.8 °F 51.8 °F 100% 30.01 in 6.2 mi North 3.5 mph - N/A   Partly Cloudy
8:30 AM 51.8 °F 51.8 °F 100% 30.01 in 6.2 mi Calm Calm - N/A   Partly Cloudy
9:00 AM 51 °F 51 °F 100% 30.05 in - North 2.3 mph - -  
9:00 AM 51.8 °F 50.0 °F 94% 30.04 in - Variable 2.3 mph - N/A   Clear
9:30 AM 51.8 °F 51.8 °F 100% 30.04 in - Variable 1.2 mph - N/A   Clear
10:00 AM 53 °F 53 °F 99% 30.08 in 16 mi SW 3.5 mph - -   Mostly Cloudy
10:00 AM 53.6 °F 51.8 °F 94% 30.06 in - Variable 2.3 mph - N/A   Clear
10:30 AM 53.6 °F 51.8 °F 94% 30.09 in - Variable 2.3 mph - N/A   Clear
11:00 AM 55 °F 54 °F 96% 30.11 in - Calm Calm - -  
11:00 AM 53.6 °F 53.6 °F 100% 30.09 in - Calm Calm - N/A   Clear
11:30 AM 55.4 °F 53.6 °F 94% 30.09 in - Calm Calm - N/A   Clear
12:00 PM 61 °F 56 °F 77% 30.12 in - Calm Calm - -  
12:00 PM 60.8 °F 55.4 °F 82% 30.09 in - Calm Calm - N/A   Clear
12:30 PM 60.8 °F 55.4 °F 82% 30.09 in - Variable 2.3 mph - N/A   Clear
1:00 PM 65 °F 56 °F 66% 30.10 in 19 mi SE 3.5 mph - -   Scattered Clouds
1:00 PM 64.4 °F 57.2 °F 77% 30.09 in - Variable 2.3 mph - N/A   Clear
1:30 PM 66.2 °F 55.4 °F 68% 30.06 in 6.2 mi SE 8.1 mph - N/A   Partly Cloudy
2:00 PM 67 °F 56 °F 59% 30.07 in - SE 8.1 mph - -  
2:00 PM 66.2 °F 55.4 °F 68% 30.06 in 6.2 mi SE 8.1 mph - N/A   Partly Cloudy
2:30 PM 66.2 °F 55.4 °F 68% 30.06 in 6.2 mi South 6.9 mph - N/A   Partly Cloudy
3:00 PM 68 °F 56 °F 56% 30.07 in - South 4.6 mph - -  
3:00 PM 66.2 °F 53.6 °F 64% 30.06 in 6.2 mi South 4.6 mph - N/A   Partly Cloudy
3:30 PM 68.0 °F 55.4 °F 64% 30.06 in 6.2 mi South 4.6 mph - N/A   Scattered Clouds
4:00 PM 69 °F 57 °F 56% 30.07 in 19 mi SSW 9.2 mph - -   Scattered Clouds
4:00 PM 68.0 °F 55.4 °F 64% 30.06 in 6.2 mi SSW 8.1 mph - N/A   Scattered Clouds
4:30 PM 68.0 °F 55.4 °F 64% 30.06 in 6.2 mi Variable 2.3 mph - N/A   Scattered Clouds
5:00 PM 67 °F 58 °F 66% 30.09 in - SSW 11.5 mph - -  
5:00 PM 66.2 °F 57.2 °F 73% 30.06 in 6.2 mi SSW 11.5 mph - N/A   Scattered Clouds
5:30 PM 66.2 °F 57.2 °F 73% 30.09 in 6.2 mi SSW 6.9 mph - N/A   Scattered Clouds
6:00 PM 64 °F 56 °F 67% 30.11 in - SSW 6.9 mph - -  
6:00 PM 64.4 °F 55.4 °F 73% 30.09 in 6.2 mi SSW 8.1 mph - N/A   Partly Cloudy
6:30 PM 59.0 °F 55.4 °F 88% 30.09 in 6.2 mi SSW 4.6 mph - N/A   Partly Cloudy
7:00 PM 59 °F 58 °F 93% 30.13 in 11 mi SW 4.6 mph - -  
7:00 PM 59.0 °F 57.2 °F 94% 30.12 in - SW 4.6 mph - N/A   Clear
7:30 PM 57.2 °F 55.4 °F 94% 30.12 in - Variable 2.3 mph - N/A   Clear
8:00 PM 56 °F 56 °F 100% 30.14 in - SSW 2.3 mph - -  
8:00 PM 57.2 °F 55.4 °F 94% 30.12 in 5.0 mi Variable 2.3 mph - N/A   Unknown
8:30 PM 55.4 °F 55.4 °F 100% 30.12 in 4.3 mi SE 3.5 mph - N/A   Unknown
9:00 PM 55 °F 55 °F 100% 30.15 in - ESE 3.5 mph - -  
9:00 PM 55.4 °F 55.4 °F 100% 30.12 in 4.3 mi SE 3.5 mph - N/A   Unknown
9:30 PM 53.6 °F 53.6 °F 100% 30.15 in 3.7 mi Calm Calm - N/A   Unknown
10:00 PM 53 °F 53 °F 100% 30.17 in 4 mi Calm Calm - -   Mist
10:00 PM 53.6 °F 53.6 °F 100% 30.15 in 4.3 mi Calm Calm - N/A   Unknown
10:30 PM 51.8 °F 51.8 °F 100% 30.18 in 2.5 mi Calm Calm - N/A   Unknown
10:53 PM 50.0 °F 50.0 °F 100% 30.18 in 0.3 mi Calm Calm - N/A Fog Fog
11:00 PM 50 °F 50 °F 100% 30.19 in - Calm Calm - -  
11:00 PM 50.0 °F 50.0 °F 100% 30.18 in 0.2 mi Calm Calm - N/A Fog Fog